Flag for Canada Weather past 2 weeks in Montreal, Quebec, Canada

Now
66 °F

Passing clouds.


Feels Like: 66 °F
Forecast: 56 / 80 °F
Wind: 6 mph from Southeast

Location: Montreal - Pierre Elliot Trudeau International Aiport

Current Time: May 29, 2015 at 10:55:58 AM

Latest Report: May 29, 2015 at 10:00 AM


Visibility: 30 mi

Pressure: 30.29 "Hg

Humidity: 68%

Dew point: 55 °F

Location of MontrealLocation

Historic Weather in Montreal — Graph

°F

Montreal temperature yesterday

Maximum temperature yesterday: 72 °F (at 12:00 AM)
Minimum temperature yesterday: 61 °F (at 11:00 PM)
Average temperature yesterday: 68 °F

Past Weeks' High & Low Weather Summary

 TemperatureHumidityPressure
High82 °F (May 18, 3:00 PM)100% (May 26, 12:00 AM)30.40 "Hg (May 26, 12:00 AM)
Low37 °F (May 23, 4:00 AM)21% (May 15, 5:00 PM)29.62 "Hg (May 19, 5:00 PM)
Average63 °F59%30.02 "Hg
* Reported May 14 9:00 AM — May 29 9:00 AM, Montreal, Weather by CustomWeather, © 2015

Note: Actual official high and low records may vary slightly from our data, if they occured in-between our weather recording intervals... More about our weather records

Advertising

Montreal weather history for previous 24 hours

 ConditionsComfort  
Time TempWeatherWind HumidityBarometerVisibility
9:00 AM
Fri, May 29
64 °FPassing clouds.5 mph73%30.31 "Hg30 mi
8:00 AM61 °FScattered clouds.3 mph83%30.31 "Hg15 mi
7:00 AM57 °FPartly sunny.6 mph88%30.31 "Hg15 mi
6:00 AM52 °FPassing clouds.No wind94%30.31 "Hg15 mi
5:00 AM52 °FPassing clouds.2 mph94%30.29 "Hg15 mi
4:00 AM52 °FPassing clouds.3 mph94%30.28 "Hg15 mi
3:00 AM52 °FClear.No wind94%30.28 "Hg15 mi
2:00 AM55 °FPassing clouds.2 mph88%30.28 "Hg15 mi
1:00 AM57 °FPassing clouds.5 mph82%30.28 "Hg15 mi
12:00 AM59 °FPassing clouds.3 mph77%30.29 "Hg15 mi
11:00 PM
Thu, May 28
61 °FPassing clouds.12 mph77%30.28 "Hg15 mi
10:00 PM64 °FPartly cloudy.8 mph73%30.25 "Hg15 mi
9:00 PM66 °FPartly sunny.8 mph73%30.21 "Hg15 mi
8:00 PM68 °FScattered clouds.3 mph83%30.18 "Hg15 mi
7:00 PM66 °FPartly sunny.2 mph83%30.16 "Hg15 mi
6:00 PM64 °FScattered showers. Partly sunny.No wind88%30.14 "Hg15 mi
5:00 PM68 °FSprinkles. Broken clouds.7 mph88%30.11 "Hg15 mi
4:00 PM70 °FMostly cloudy.15 mph78%30.10 "Hg15 mi
3:00 PM70 °FSprinkles. Mostly cloudy.12 mph78%30.07 "Hg15 mi
2:48 PM70 °FSprinkles. Mostly cloudy.15 mph73%30.06 "Hg15 mi
2:00 PM70 °FScattered showers. Partly sunny.14 mph78%30.05 "Hg15 mi
1:48 PM70 °FPartly sunny.12 mph83%30.04 "Hg15 mi
1:00 PM68 °FSprinkles. Cloudy.14 mph88%30.05 "Hg10 mi
12:00 PM66 °FRain showers. Mostly cloudy.21 mph88%30.03 "Hg2 mi
11:55 AM70 °FRain showers. Mostly cloudy.23 mph83%30.03 "Hg4 mi
11:00 AM70 °FOvercast.13 mph78%30.02 "Hg15 mi
10:00 AM68 °FLight rain. Mostly cloudy.13 mph78%30.01 "Hg15 mi
Weather by CustomWeather, © 2015

See weather overviewHow to use our weather pages